Temperature
24 25 24 23 23 22 21 21 21 20 20 20 20 20 20 20 20 20 20 19 19 19 19 19 19 19 19 19 19 19 19 19 19 19 19 19 19 18 18 17 17 17 17
25 25 24 24 23 22 22 21 21 20 20 20 20 20 20 19 19 19 19 19 19 19 19 19 19 19 19 19 19 19 19 19 19 19 19 19 18 18 17 17 17 18 17
25 25 24 24 23 22 22 21 21 20 20 20 20 19 19 19 19 19 19 19 19 19 19 19 19 19 19 19 19 19 19 19 19 19 18 18 18 18 18 17 17 18 17
25 25 24 24 23 22 22 21 21 20 20 20 20 19 19 19 19 19 20 19 19 19 19 19 19 19 19 19 20 20 19 19 19 18 17 17 18 18 18 18 18 18 17
23 24 24 24 23 23 22 21 21 20 20 20 20 19 19 19 19 19 19 19 19 19 19 19 19 19 20 20 20 20 20 19 19 18 18 18 18 18 18 18 18 18 17
23 24 24 24 23 23 22 22 21 21 20 20 20 20 20 20 20 20 20 20 20 19 19 19 20 20 20 20 20 20 20 19 19 18 18 18 18 19 19 18 18 18 18
22 23 24 24 23 23 22 22 21 21 21 20 20 20 20 20 20 20 20 20 20 20 20 20 20 20 20 20 20 20 20 20 19 18 18 18 18 19 19 19 18 18 18
23 23 24 24 23 23 22 22 21 21 21 21 20 20 20 20 20 20 20 20 20 20 20 20 20 20 20 20 20 20 20 20 19 19 19 19 19 19 19 19 19 18 18
24 23 24 23 23 23 22 22 22 21 21 21 21 20 20 20 20 20 20 20 20 20 20 20 20 20 20 20 20 20 20 20 19 19 19 19 19 19 19 19 19 19 19
24 23 24 23 23 22 22 22 22 21 21 21 21 20 20 20 20 20 20 20 20 20 20 19 19 19 19 20 20 20 20 20 20 19 19 19 19 19 19 19 19 19 19
25 23 22 22 22 22 22 22 21 21 21 21 21 20 20 20 20 20 20 20 20 19 19 19 19 19 19 19 19 19 19 19 19 19 19 19 19 19 19 19 19 19 18
25 24 23 22 21 21 21 21 21 21 21 21 20 20 20 20 19 19 19 19 19 19 19 19 19 19 19 19 19 19 19 19 19 19 19 19 19 19 19 19 19 19 18
25 24 23 22 21 21 21 20 20 20 20 20 20 19 19 19 19 19 19 19 19 19 19 19 19 19 19 19 18 18 18 18 18 19 19 19 19 19 19 19 19 19 18
24 24 23 22 21 21 20 20 20 20 20 19 19 19 19 19 19 19 19 19 18 18 19 19 18 19 18 18 18 18 18 18 18 19 19 19 19 19 19 19 19 19 19
23 23 23 22 21 20 20 20 20 20 19 19 19 19 19 18 18 18 18 18 18 18 18 18 18 18 18 18 18 18 18 18 18 19 19 18 18 18 18 18 19 19 19
22 22 22 21 20 20 20 20 19 19 19 19 19 19 18 18 18 18 18 18 18 18 18 18 18 18 18 18 18 18 18 18 18 19 19 18 18 18 18 18 18 18 19
21 21 21 20 20 19 19 19 18 18 18 18 18 18 18 18 18 18 18 18 18 18 17 17 17 17 17 17 18 18 18 18 18 18 18 18 18 18 18 18 18 18 18
20 20 20 19 19 19 18 18 18 18 18 18 18 18 17 17 17 17 17 17 17 17 17 17 17 17 17 17 17 17 18 18 18 18 18 18 18 18 18 18 18 18 18
19 19 19 19 19 18 18 18 18 18 18 18 18 17 17 17 17 17 17 17 17 17 17 16 17 17 17 17 17 17 17 18 18 18 18 18 18 18 18 18 18 18 18
18 18 18 18 18 18 18 18 18 18 17 17 17 17 17 17 17 16 16 16 16 16 16 16 16 16 16 16 17 17 17 18 18 18 18 18 18 18 18 18 18 18 18
18 18 18 18 18 18 18 18 17 17 17 17 17 17 16 16 16 16 16 16 16 16 16 16 16 16 16 16 16 17 17 17 18 18 18 18 18 18 18 18 18 18 17
18 18 18 17 17 17 17 17 17 17 17 17 17 16 16 16 16 16 16 15 15 15 15 15 15 15 15 16 16 16 17 17 18 18 18 18 18 18 18 18 18 17 17
18 18 18 17 17 17 17 17 16 16 17 17 16 16 16 16 16 15 15 15 15 15 15 15 15 15 15 15 16 16 17 18 18 18 18 18 18 18 18 18 18 18 17
19 18 18 17 17 16 16 16 16 16 16 16 16 16 16 15 15 15 15 15 15 15 15 14 14 15 15 15 16 16 16 17 17 18 18 18 18 18 18 18 18 18 17
19 19 18 18 17 16 16 16 15 15 15 15 15 15 15 15 15 15 15 14 14 14 14 14 14 14 15 15 15 16 16 17 17 17 18 18 18 18 18 18 18 18 17
19 19 18 18 17 16 15 15 15 15 14 14 14 14 14 14 15 15 15 14 14 14 14 14 14 14 14 14 15 15 15 16 16 17 17 18 18 18 18 18 18 18 17
Wind_Speed
19 20 22 19 16 15 14 14 14 14 13 12 12 11 11 12 12 12 13 12 12 12 11 11 10 10 10 10 11 12 12 12 13 14 14 14 13 12 10 8 14 17 16
23 21 22 19 17 15 14 14 14 14 14 13 12 12 12 12 12 11 11 11 11 10 10 10 10 10 10 10 10 10 10 10 10 12 13 13 11 10 10 8 14 15 15
22 20 20 19 17 15 14 14 14 14 14 13 13 12 12 12 12 11 11 10 10 9 9 9 9 9 10 10 9 9 9 8 8 9 11 13 11 10 11 16 18 16 15
22 19 19 19 17 16 15 14 14 14 14 13 13 12 12 12 11 11 10 10 9 9 9 8 8 9 9 9 9 8 7 6 6 7 8 10 13 11 11 13 14 14 13
20 18 20 20 18 16 15 14 14 14 13 13 12 12 12 11 11 10 10 9 9 9 9 8 8 8 8 8 8 7 6 6 6 8 6 11 14 13 11 11 11 12 12
19 19 21 20 18 17 15 14 13 13 13 13 12 12 11 11 11 10 10 10 9 9 9 9 9 9 8 8 7 7 6 7 7 10 7 14 15 14 12 11 10 10 10
19 19 20 19 18 16 15 14 13 12 12 12 11 11 11 11 11 11 11 10 10 9 9 9 9 9 10 9 8 8 8 8 10 10 6 13 17 17 14 11 10 10 10
21 19 19 19 18 16 14 13 12 12 11 11 11 11 11 10 10 10 10 10 10 10 10 10 10 10 10 10 10 9 9 10 11 12 9 15 21 20 16 13 12 11 10
21 20 16 17 16 15 14 13 12 12 11 11 11 10 10 10 10 11 11 11 11 11 11 11 11 11 11 12 12 11 11 12 12 12 8 15 23 22 18 15 14 13 12
20 19 16 16 15 14 14 14 13 12 11 11 11 11 11 11 12 13 13 14 13 13 12 12 12 12 13 13 13 14 13 12 13 15 11 14 26 24 21 18 16 15 14
16 16 16 16 14 14 14 15 14 13 13 13 12 13 12 12 14 15 18 19 18 16 15 14 14 14 14 15 16 16 14 12 14 14 13 16 28 25 23 20 18 17 17
12 14 12 14 13 11 11 14 12 13 14 14 13 14 13 13 13 14 18 22 21 20 18 17 17 16 15 14 18 19 14 15 15 14 13 20 26 25 24 22 20 18 19
9 9 11 11 10 6 5 8 5 7 9 13 12 12 12 11 10 10 7 14 18 19 16 16 17 15 14 13 10 14 16 15 13 13 11 22 25 25 24 23 21 20 20
7 6 7 10 9 3 2 2 2 2 3 4 6 8 6 3 3 3 2 4 8 11 10 10 9 13 13 14 11 11 14 13 12 11 10 19 23 25 24 23 22 21 21
7 5 5 8 8 4 3 2 1 1 1 2 1 4 4 2 4 4 2 2 5 6 7 8 6 8 9 8 9 9 10 12 13 11 8 17 21 23 22 21 21 22 22
6 5 5 6 8 5 2 1 2 3 2 2 2 2 2 3 2 3 5 5 4 5 5 4 6 7 7 7 8 8 9 10 11 10 9 15 21 23 22 22 23 23 23
8 7 6 5 5 4 1 2 3 3 3 2 2 3 3 4 3 3 5 5 5 7 7 4 4 5 7 8 9 11 10 9 8 9 10 11 16 20 22 23 24 24 24
9 8 6 4 4 3 1 2 3 4 4 3 4 4 4 4 5 3 5 5 5 5 4 5 5 5 7 7 7 9 9 9 10 8 8 10 11 14 20 25 25 25 25
7 6 5 5 4 3 2 2 3 3 3 2 2 2 3 5 5 4 5 4 4 4 5 6 4 5 7 8 8 8 8 8 8 10 9 10 12 14 15 22 26 24 25
6 5 4 3 4 4 3 2 2 3 3 2 2 1 2 4 5 4 4 4 3 3 4 4 4 4 5 5 8 8 7 7 7 9 10 9 9 13 15 15 18 20 25
4 4 3 3 3 2 2 3 3 3 4 3 2 1 2 3 4 4 5 4 3 3 4 4 4 5 5 4 4 6 6 7 8 8 8 7 8 9 11 12 14 15 17
4 3 2 2 3 3 3 3 3 3 4 3 2 0 1 2 3 4 3 4 3 3 4 3 4 4 4 4 4 3 3 5 6 9 7 6 6 6 7 9 11 12 11
3 2 2 2 2 3 4 4 4 3 4 4 3 2 0 1 2 2 3 3 3 3 3 3 3 4 4 4 4 3 3 2 3 4 7 7 7 5 6 7 9 11 11
1 2 3 2 1 2 3 4 6 6 6 6 4 3 2 2 4 3 3 2 2 2 3 4 3 3 4 4 3 4 3 1 1 2 3 5 7 5 4 5 7 7 10
2 2 2 2 2 1 3 5 6 7 6 6 6 7 6 5 6 6 5 3 1 2 1 2 3 3 3 4 3 3 3 3 4 2 3 4 4 5 4 3 3 4 6
3 3 2 1 1 2 4 6 7 8 8 9 9 9 8 6 5 6 5 4 3 2 1 2 2 3 3 4 4 4 3 3 3 3 3 5 6 5 6 5 4 5 5
Wind_Direction
124 135 137 135 133 132 135 141 143 144 142 137 133 130 126 122 119 116 114 114 113 113 111 110 108 103 96 90 86 86 87 89 91 93 94 93 93 91 88 97 112 98 103
126 134 136 135 134 133 136 141 145 147 146 143 140 138 136 133 131 128 126 125 123 120 117 116 114 110 106 103 101 100 101 104 109 113 113 106 98 87 72 73 105 108 108
124 132 136 135 134 134 134 139 145 149 149 148 145 144 144 143 142 140 138 136 134 130 125 123 121 118 115 114 114 115 117 124 133 142 148 127 112 95 84 89 102 110 111
127 137 138 137 136 136 135 138 144 149 151 151 151 151 151 150 150 150 149 147 146 142 137 134 131 128 126 126 127 130 137 152 166 182 201 142 127 112 102 102 107 113 115
129 133 136 141 140 139 139 140 144 149 152 153 155 155 155 156 156 157 158 157 157 153 149 145 141 139 137 139 141 148 162 184 200 226 221 125 117 128 121 118 118 119 121
131 133 140 143 143 144 144 145 147 150 154 157 158 160 161 162 166 168 169 170 168 164 162 158 156 152 152 154 160 169 188 214 228 232 199 133 130 140 136 135 133 131 130
136 133 143 146 147 148 148 150 152 154 157 160 164 167 170 172 176 179 180 180 178 176 174 172 171 167 167 170 178 190 206 228 245 255 184 138 142 149 148 150 150 147 145
135 135 142 147 149 151 153 156 159 161 164 168 172 175 178 180 185 189 190 189 187 188 187 185 183 181 181 184 190 200 216 236 238 249 205 146 150 154 157 162 164 163 161
134 134 146 150 153 156 159 163 167 170 174 177 181 184 187 191 196 200 203 202 201 200 200 199 197 195 195 195 199 206 220 236 264 276 229 150 157 159 163 170 176 177 176
134 140 151 154 155 161 167 172 175 179 183 188 193 196 199 204 209 211 210 209 210 208 208 209 209 208 206 205 208 212 220 235 250 261 253 171 163 164 167 176 184 188 188
138 143 156 154 158 169 173 172 178 186 191 195 200 205 207 214 216 212 218 211 208 209 211 214 216 216 214 215 215 216 218 228 237 243 252 185 169 169 171 179 189 196 197
140 148 154 152 157 174 175 160 181 189 190 200 204 199 208 225 235 230 214 208 208 210 212 216 219 221 221 224 219 215 218 225 239 239 235 178 174 174 176 181 190 199 202
142 145 144 140 143 165 146 153 181 190 178 201 213 199 205 223 236 247 225 201 205 210 215 218 218 222 223 225 220 202 215 225 227 239 221 178 179 180 181 185 192 200 206
136 132 133 129 129 134 102 133 176 184 160 191 202 211 212 216 254 267 261 215 207 211 214 221 211 213 223 228 224 208 212 224 235 234 212 188 188 188 187 189 195 203 208
124 127 101 105 113 106 62 4 359 316 232 235 184 209 230 232 252 276 298 273 251 238 219 219 220 216 217 224 231 224 217 221 231 235 200 191 196 195 195 198 203 208 212
87 82 84 93 101 102 95 337 309 290 280 283 270 245 248 270 270 282 283 279 275 269 263 236 235 237 225 222 232 237 231 228 229 229 209 193 202 202 203 206 209 212 215
69 63 66 89 99 110 148 280 287 291 306 312 323 305 280 276 282 273 274 274 272 270 268 262 256 261 252 237 234 236 235 231 227 222 216 200 204 207 210 213 214 214 217
59 60 52 42 59 73 49 303 298 312 329 337 335 332 323 303 287 277 271 271 272 268 258 251 245 250 252 247 241 238 234 224 224 217 215 212 210 215 214 217 217 216 218
58 60 60 40 28 13 340 310 291 297 302 301 301 321 331 314 302 293 277 273 279 270 255 255 241 242 248 248 244 238 236 226 215 217 212 211 213 212 210 213 215 216 219
62 57 52 49 37 3 350 329 311 308 305 291 298 348 319 307 313 302 284 283 282 280 263 251 252 256 256 255 258 251 236 223 212 213 211 211 212 211 211 209 205 216 220
85 78 65 51 43 1 1 342 336 338 322 300 283 31 335 332 331 309 305 301 281 278 272 259 246 254 249 249 252 260 253 239 221 214 209 210 207 205 208 198 193 200 212
94 94 102 75 39 7 17 321 283 301 297 295 314 235 285 326 318 312 317 301 300 284 275 271 257 256 253 236 224 239 245 233 222 213 196 202 217 202 196 193 190 194 192
97 82 64 60 12 357 338 312 320 313 293 300 312 287 254 303 285 289 304 309 313 299 284 280 253 246 254 263 234 227 241 228 190 207 201 197 195 195 193 182 183 179 187
173 187 162 180 215 284 305 320 326 310 307 310 309 308 310 269 251 239 250 277 310 313 306 292 279 259 256 267 274 258 262 301 257 188 216 191 179 185 197 189 181 166 181
288 277 220 180 193 283 312 306 304 304 311 313 317 308 303 285 259 237 220 207 230 278 312 310 320 301 272 264 267 282 281 267 255 233 216 190 180 177 192 200 174 159 162
285 295 318 45 56 332 320 317 312 308 307 305 299 292 287 272 260 248 218 184 200 217 251 280 281 273 280 282 282 280 281 271 267 260 238 205 192 193 188 182 177 159 154
Height
1492 1494 1498 1502 1504 1507 1510 1513 1516 1518 1521 1523 1525 1526 1528 1530 1531 1533 1535 1536 1538 1539 1540 1542 1543 1544 1546 1547 1548 1549 1549 1550 1551 1552 1553 1553 1554 1555 1556 1557 1558 1559 1559
1490 1495 1499 1502 1505 1508 1511 1514 1517 1519 1521 1524 1526 1527 1529 1531 1533 1534 1536 1537 1539 1540 1541 1543 1544 1545 1546 1548 1549 1549 1550 1551 1552 1553 1554 1555 1556 1557 1557 1558 1560 1561 1562
1491 1496 1499 1503 1506 1509 1511 1514 1517 1520 1522 1524 1526 1528 1530 1532 1533 1535 1537 1538 1539 1541 1542 1543 1545 1546 1547 1548 1549 1550 1552 1553 1554 1555 1556 1557 1558 1559 1559 1560 1562 1563 1564
1492 1496 1500 1503 1506 1509 1512 1515 1517 1520 1523 1525 1527 1529 1531 1532 1534 1536 1537 1539 1540 1541 1543 1544 1545 1547 1548 1549 1550 1551 1553 1554 1555 1556 1558 1560 1560 1561 1561 1562 1563 1564 1566
1494 1497 1500 1504 1507 1510 1512 1515 1518 1520 1523 1525 1527 1529 1531 1533 1535 1536 1538 1539 1540 1542 1543 1544 1546 1547 1548 1549 1551 1552 1554 1555 1556 1557 1560 1561 1562 1562 1563 1563 1564 1566 1567
1495 1497 1501 1504 1507 1510 1512 1515 1518 1520 1523 1525 1527 1529 1531 1533 1534 1536 1538 1539 1541 1542 1543 1544 1546 1547 1548 1550 1551 1552 1554 1556 1557 1558 1561 1562 1562 1563 1564 1565 1566 1567 1568
1496 1498 1502 1505 1508 1510 1513 1515 1518 1520 1523 1525 1527 1529 1531 1532 1534 1536 1537 1539 1540 1542 1543 1544 1545 1547 1548 1549 1551 1552 1554 1556 1557 1558 1562 1562 1562 1564 1565 1565 1566 1568 1569
1497 1498 1502 1505 1508 1511 1513 1516 1518 1520 1522 1525 1527 1528 1530 1532 1534 1535 1537 1538 1539 1541 1542 1543 1544 1546 1547 1548 1550 1552 1553 1555 1557 1558 1561 1561 1562 1563 1564 1565 1566 1568 1569
1498 1499 1503 1506 1508 1511 1513 1516 1518 1520 1522 1524 1526 1528 1529 1531 1533 1534 1536 1537 1538 1540 1541 1542 1543 1544 1546 1547 1548 1550 1552 1553 1555 1556 1560 1560 1561 1562 1564 1565 1566 1567 1569
1499 1500 1503 1506 1508 1511 1513 1516 1518 1520 1522 1523 1525 1527 1528 1530 1531 1533 1534 1535 1537 1538 1539 1540 1541 1542 1544 1545 1546 1548 1549 1551 1552 1554 1556 1557 1559 1560 1562 1564 1565 1566 1568
1501 1502 1504 1506 1508 1511 1513 1515 1517 1519 1521 1522 1524 1526 1527 1528 1529 1531 1532 1533 1534 1536 1537 1538 1539 1540 1541 1542 1543 1545 1546 1548 1549 1551 1553 1555 1555 1557 1560 1561 1563 1565 1566
1501 1504 1506 1508 1509 1512 1514 1515 1517 1519 1520 1521 1523 1524 1525 1527 1528 1530 1530 1531 1532 1533 1534 1534 1536 1537 1538 1539 1540 1541 1542 1544 1546 1548 1549 1551 1552 1554 1556 1558 1560 1562 1564
1502 1505 1507 1509 1510 1513 1515 1516 1518 1519 1520 1521 1522 1523 1524 1525 1527 1528 1529 1528 1528 1529 1529 1530 1531 1532 1534 1535 1537 1537 1538 1540 1541 1543 1545 1547 1548 1551 1553 1555 1557 1559 1561
1501 1504 1507 1508 1509 1512 1515 1516 1518 1519 1520 1520 1521 1522 1523 1523 1524 1525 1526 1525 1525 1525 1525 1525 1526 1527 1529 1531 1533 1533 1534 1536 1537 1539 1541 1542 1543 1546 1549 1550 1553 1555 1557
1501 1503 1506 1507 1508 1511 1513 1515 1517 1518 1519 1520 1520 1520 1521 1521 1521 1522 1522 1521 1521 1521 1520 1520 1522 1523 1524 1526 1528 1529 1530 1531 1532 1534 1535 1536 1538 1541 1543 1545 1548 1550 1553
1501 1503 1505 1506 1507 1509 1511 1513 1515 1516 1517 1518 1518 1517 1517 1517 1517 1517 1517 1517 1516 1517 1517 1517 1517 1518 1519 1520 1522 1523 1525 1526 1527 1529 1530 1531 1533 1535 1537 1540 1542 1545 1548
1500 1502 1504 1506 1507 1508 1510 1511 1513 1513 1514 1514 1514 1514 1514 1513 1512 1512 1511 1511 1511 1511 1511 1511 1511 1512 1513 1515 1516 1518 1519 1520 1522 1523 1524 1526 1527 1529 1532 1534 1537 1540 1542
1500 1502 1503 1506 1506 1507 1508 1509 1510 1510 1511 1510 1510 1510 1510 1510 1508 1507 1507 1506 1506 1505 1505 1504 1505 1506 1507 1509 1510 1512 1513 1515 1516 1517 1518 1519 1521 1524 1526 1529 1532 1534 1537
1501 1502 1503 1505 1505 1506 1507 1507 1507 1508 1508 1507 1507 1506 1506 1506 1505 1504 1503 1502 1501 1500 1499 1499 1499 1500 1502 1503 1505 1506 1507 1508 1511 1512 1513 1514 1516 1519 1521 1524 1526 1529 1531
1502 1502 1503 1504 1504 1505 1505 1506 1506 1506 1506 1505 1504 1504 1503 1502 1501 1500 1499 1498 1497 1496 1495 1494 1494 1495 1497 1498 1499 1500 1501 1503 1505 1507 1509 1510 1512 1515 1517 1519 1521 1523 1526
1502 1503 1503 1503 1504 1504 1504 1504 1504 1503 1503 1503 1502 1500 1500 1499 1498 1496 1495 1494 1493 1492 1491 1491 1490 1491 1492 1493 1494 1495 1496 1498 1500 1501 1504 1506 1508 1510 1513 1515 1517 1519 1521
1503 1504 1504 1503 1503 1503 1503 1502 1502 1502 1501 1501 1500 1498 1497 1495 1494 1493 1492 1490 1489 1488 1487 1487 1487 1487 1489 1490 1491 1492 1493 1495 1495 1498 1499 1502 1504 1506 1508 1510 1512 1515 1517
1504 1504 1504 1503 1502 1502 1501 1501 1501 1500 1499 1499 1498 1496 1494 1492 1491 1490 1488 1487 1486 1485 1484 1484 1483 1485 1485 1487 1488 1489 1491 1491 1491 1494 1496 1498 1500 1502 1504 1507 1509 1511 1514
1504 1504 1503 1502 1501 1500 1499 1499 1498 1498 1497 1496 1495 1493 1491 1489 1488 1486 1485 1484 1483 1482 1482 1482 1481 1482 1483 1483 1484 1486 1488 1489 1490 1491 1493 1495 1496 1499 1502 1504 1506 1508 1510
1503 1503 1502 1500 1499 1498 1497 1496 1495 1494 1493 1492 1490 1489 1488 1486 1485 1483 1481 1480 1480 1479 1479 1479 1479 1480 1480 1481 1481 1483 1484 1486 1487 1490 1490 1492 1494 1496 1498 1501 1503 1505 1506
1501 1501 1500 1498 1497 1496 1494 1493 1492 1491 1489 1487 1486 1484 1483 1482 1481 1480 1478 1476 1476 1476 1476 1476 1476 1476 1477 1478 1478 1480 1482 1483 1484 1486 1488 1489 1490 1493 1495 1497 1499 1501 1503